Find Starlink 4349

NORAD ID: 53044 Int'l Des: 2022-077 Owner: SPXS Country: US Constellation: starlink operational
LEOCIRCULARRETROGRADE

Live Position

Loading 3D Globe...

About Starlink 4349

Description loading...

Upcoming Passes

Passes for default location (London). Set your location on the main map for personalized predictions.

Altitude History

Loading altitude history...

Two-Line Element Set

1 53044U 22077B 26123.34559900 .10175676 27295-5 13556-3 0 9999
2 53044 97.5535 320.6144 0008443 251.3393 108.6994 16.49062714210209
Epoch: May 3, 2026 • Age: 28 hours

Current Status

Altitude 90.7 km
Velocity 7.85 km/s
Sub-Earth Point 43.35°N, 102.06°E
Launch Date Jul 11, 2022
Age 3.8 years
Type internet

Technical Details

Classification Payload
Mass 297.00 kg
Dry Mass 275.00 kg
Total Mass 297.00 kg
Length 0.20 m
Diameter 2.80 m
Span 9.00 m
Shape Box + pan
Manufacturer SPXS
Bus Type Starlink
Phase Status In Orbit
Owner/State SPXS/US

Most Searched